EW5788 Weather Reports


time (UTC)temp
C
wind
direction
speed
KPH
gust
KPH
rain 1hr
cm
rain 24hr
cm
rain mn
cm
humidity
%
barometer
mb
20260504214252 13 65 30.6 38.6 0.00 0.00 0.00 74 1008.8
20260504213750 13 44 32.2 38.6 0.00 0.00 0.00 74 1008.8
20260504213250 13 58 29.0 38.6 0.00 0.00 0.00 74 1008.8
20260504212751 13 55 27.4 33.8 0.00 0.00 0.00 74 1008.8
20260504212517 13 38 25.7 33.8 0.00 0.00 0.00 75 1008.8
20260504211750 13 52 25.7 32.2 0.00 0.00 0.00 74 1008.9
20260504211249 13 53 27.4 32.2 0.00 0.00 0.00 74 1008.9
20260504210751 14 49 27.4 32.2 0.00 0.00 0.00 73 1008.9
20260504210246 14 57 29.0 33.8 0.00 0.00 0.00 72 1008.9
20260504205745 14 57 29.0 35.4 0.00 0.00 0.00 72 1008.8
20260504205248 14 51 29.0 37.0 0.00 0.00 0.00 71 1008.9
20260504204746 14 56 22.5 37.0 0.00 0.00 0.00 71 1008.9
20260504204246 13 52 14.5 29.0 0.00 0.00 0.00 76 1009.0
20260504203745 13 52 16.1 22.5 0.00 0.00 0.00 77 1008.9
20260504203245 13 57 19.3 27.4 0.00 0.00 0.00 76 1009.0
20260504202746 13 49 20.9 27.4 0.00 0.00 0.00 75 1009.0
20260504202247 13 59 22.5 27.4 0.00 0.00 0.00 75 1009.0
20260504202008 13 52 22.5 27.4 0.00 0.00 0.00 74 1009.0
20260504201242 13 46 22.5 27.4 0.00 0.00 0.00 75 1009.0
20260504200742 13 67 22.5 27.4 0.00 0.00 0.00 74 1009.0
20260504200243 13 62 25.7 32.2 0.00 0.00 0.00 74 1009.0
20260504195739 13 74 29.0 32.2 0.00 0.00 0.00 72 1009.1
20260504195238 13 64 27.4 32.2 0.00 0.00 0.00 72 1009.1
20260504194738 13 70 27.4 33.8 0.00 0.00 0.00 72 1009.1
20260504194237 13 63 25.7 33.8 0.00 0.00 0.00 71 1009.2
20260504193736 13 63 24.1 30.6 0.00 0.00 0.00 73 1009.1
20260504193234 13 73 27.4 30.6 0.00 0.00 0.00 72 1009.2
20260504192736 13 57 27.4 30.6 0.00 0.00 0.00 73 1009.2
20260504192235 13 63 27.4 30.6 0.00 0.00 0.00 74 1009.2
20260504191950 13 65 25.7 30.6 0.00 0.00 0.00 74 1009.3
20260504191234 13 64 24.1 29.0 0.00 0.00 0.00 74 1009.3
20260504190733 13 62 24.1 29.0 0.00 0.00 0.00 74 1009.4
20260504190543 13 62 22.5 27.4 0.00 0.00 0.00 75 1009.4
20260504185226 13 64 19.3 27.4 0.00 0.00 0.00 76 1009.4
20260504184720 13 63 19.3 24.1 0.00 0.00 0.00 75 1009.5
20260504184214 13 53 20.9 25.7 0.00 0.00 0.00 75 1009.6
20260504183708 13 61 22.5 25.7 0.00 0.00 0.00 74 1009.8
20260504183202 13 74 22.5 25.7 0.00 0.00 0.00 73 1009.8
20260504182656 13 68 19.3 24.1 0.00 0.00 0.00 74 1009.9
20260504182150 12 63 17.7 22.5 0.00 0.00 0.00 77 1010.0
20260504181645 12 71 17.7 22.5 0.00 0.00 0.00 76 1009.9
20260504181140 12 61 17.7 20.9 0.00 0.00 0.00 77 1010.0
20260504180633 12 63 17.7 24.1 0.00 0.00 0.00 76 1010.1
20260504180347 13 82 17.7 24.1 0.00 0.00 0.00 74 1010.1
20260504175621 13 75 17.7 25.7 0.00 0.00 0.00 72 1010.1
20260504175115 13 58 16.1 25.7 0.00 0.00 0.00 71 1010.2
20260504174609 13 77 17.7 25.7 0.00 0.00 0.00 69 1010.3
20260504174336 13 69 16.1 25.7 0.00 0.00 0.00 71 1010.3
20260504173556 13 81 14.5 24.1 0.00 0.00 0.00 71 1010.4
20260504173052 13 74 16.1 24.1 0.00 0.00 0.00 71 1010.4
20260504172543 13 103 17.7 25.7 0.00 0.00 0.00 71 1010.4
20260504172038 13 98 19.3 27.4 0.00 0.00 0.00 68 1010.4
20260504171532 13 88 19.3 29.0 0.00 0.00 0.00 68 1010.5
20260504171027 13 69 19.3 29.0 0.00 0.00 0.00 69 1010.5
20260504170520 13 80 19.3 29.0 0.00 0.00 0.00 68 1010.5
20260504170238 13 89 17.7 25.7 0.00 0.00 0.00 70 1010.5
20260504160421 15 51 17.7 30.6 0.00 0.00 0.00 60 1011.4
20260504151133 13 109 14.5 29.0 0.00 0.00 0.00 68 1012.0
20260504150415 13 98 16.1 29.0 0.00 0.00 0.00 67 1012.0
20260504140909 13 104 20.9 38.6 0.00 0.00 0.00 58 1012.3
20260504140409 13 115 19.3 38.6 0.00 0.00 0.00 58 1012.3
20260504130410 12 93 12.9 27.4 0.00 0.00 0.00 72 1012.6
20260504110401 10 99 3.2 11.3 0.00 0.00 0.00 78 1012.6
20260504100334 8 111 1.6 6.4 0.00 0.00 0.00 74 1012.4
20260504090135 5 114 1.6 4.8 0.00 0.00 0.00 84 1012.1
20260504081548 5 150 1.6 4.8 0.00 0.00 0.00 81 1011.7
20260504081050 5 148 1.6 3.2 0.00 0.00 0.00 83 1011.7
20260504080548 5 148 1.6 3.2 0.00 0.00 0.00 85 1011.7
20260504050538 5 155 6.4 9.7 0.00 0.00 0.00 76 1011.3
20260504045537 5 145 1.6 6.4 0.00 0.00 0.00 75 1011.2
20260504045036 5 142 1.6 3.2 0.00 0.00 0.00 75 1011.3
20260504044537 5 142 1.6 3.2 0.00 0.00 0.00 75 1011.3
20260504044035 5 151 1.6 4.8 0.00 0.00 0.00 75 1011.3
20260504043531 5 152 3.2 6.4 0.00 0.00 0.00 74 1011.4
20260504043031 5 148 3.2 6.4 0.00 0.00 0.00 73 1011.4
20260504042529 5 143 1.6 6.4 0.00 0.00 0.00 72 1011.4
20260504042248 5 142 1.6 6.4 0.00 0.00 0.00 72 1011.3
20260504041522 5 142 1.6 6.4 0.00 0.00 0.00 71 1011.3
20260504041016 5 142 3.2 6.4 0.00 0.00 0.00 70 1011.3
20260504040510 6 154 4.8 8.0 0.00 0.00 0.00 68 1011.2
20260504040443 6 152 6.4 8.0 0.00 0.00 0.00 68 1011.2
20260504035721 6 155 6.4 8.0 0.00 0.00 0.00 67 1011.0
20260504034953 6 147 4.8 8.0 0.00 0.00 0.00 67 1011.0
20260504034447 6 161 3.2 8.0 0.00 0.00 0.00 68 1011.0
20260504033940 6 157 1.6 4.8 0.00 0.00 0.00 67 1011.0
20260504033703 6 152 0.0 1.6 0.00 0.00 0.00 69 1011.0
20260504033154 6 152 1.6 4.8 0.00 0.00 0.00 67 1011.1
20260504032423 6 152 3.2 4.8 0.00 0.00 0.00 67 1011.1
20260504032143 6 148 3.2 6.4 0.00 0.00 0.00 66 1011.1
20260504031412 6 164 1.6 6.4 0.00 0.00 0.00 65 1011.0
20260504030905 6 143 0.0 4.8 0.00 0.00 0.00 67 1011.0
20260504030359 6 143 1.6 4.8 0.00 0.00 0.00 67 1011.0
20260504025854 6 143 3.2 4.8 0.00 0.00 0.00 66 1011.0
20260504025347 6 142 3.2 4.8 0.00 0.00 0.00 65 1011.0
20260504024841 6 146 1.6 4.8 0.00 0.00 0.00 66 1011.0
20260504024337 6 145 1.6 4.8 0.00 0.00 0.00 68 1011.0
20260504023829 6 145 1.6 4.8 0.00 0.00 0.00 67 1011.0
20260504023323 7 144 1.6 4.8 0.00 0.00 0.00 67 1011.0
20260504022817 7 143 1.6 3.2 0.00 0.00 0.00 65 1011.0
20260504022311 7 143 0.0 1.6 0.00 0.00 0.00 63 1011.0
20260504021806 8 143 0.0 1.6 0.00 0.00 0.00 60 1011.0
20260504021259 8 143 0.0 3.2 0.00 0.00 0.00 58 1011.0
20260504020753 8 143 1.6 3.2 0.00 0.00 0.00 59 1011.0
20260504020723 8 143 1.6 3.2 0.00 0.00 0.00 57 1011.0
20260504015741 8 143 1.6 4.8 0.00 0.00 0.00 60 1010.9
20260504015731 8 143 1.6 4.8 0.00 0.00 0.00 61 1010.9
20260504014729 8 143 1.6 4.8 0.00 0.00 0.00 58 1010.9
20260504014450 8 144 1.6 4.8 0.00 0.00 0.00 60 1010.8
20260504013942 8 134 1.6 4.8 0.00 0.00 0.00 60 1010.8
20260504013211 8 124 0.0 3.2 0.00 0.00 0.00 56 1010.6
20260504012704 9 124 0.0 3.2 0.00 0.00 0.00 54 1010.6
20260504012159 10 124 0.0 3.2 0.00 0.00 0.00 49 1010.5
20260504011653 10 124 1.6 3.2 0.00 0.00 0.00 47 1010.4
20260504011148 9 124 3.2 3.2 0.00 0.00 0.00 50 1010.4
20260504010641 10 124 1.6 3.2 0.00 0.00 0.00 49 1010.3
20260504010135 10 123 1.6 1.6 0.00 0.00 0.00 50 1010.2
20260504005629 9 123 1.6 1.6 0.00 0.00 0.00 52 1010.1
20260504005123 10 124 1.6 1.6 0.00 0.00 0.00 51 1010.1
20260504004618 10 123 0.0 1.6 0.00 0.00 0.00 48 1010.0
20260504004111 10 123 0.0 1.6 0.00 0.00 0.00 46 1009.9
20260504003604 10 123 0.0 1.6 0.00 0.00 0.00 46 1010.0
20260504003059 10 124 0.0 1.6 0.00 0.00 0.00 44 1009.8
20260504002553 11 123 0.0 1.6 0.00 0.00 0.00 45 1009.8
20260504002053 11 123 0.0 1.6 0.00 0.00 0.00 45 1009.8
20260504001811 11 124 0.0 1.6 0.00 0.00 0.00 39 1009.7
20260504001053 11 130 0.0 1.6 0.00 0.00 0.00 39 1009.5
20260504000552 11 130 0.0 1.6 0.00 0.00 0.00 42 1009.5
20260504000053 12 130 0.0 1.6 0.00 0.00 0.00 38 1009.4
20260503235824 12 130 0.0 1.6 0.00 0.00 0.00 36 1009.3
20260503235053 12 130 1.6 6.4 0.00 0.00 0.00 35 1009.3
20260503234551 12 130 3.2 14.5 0.00 0.00 0.00 35 1009.2
20260503234049 13 130 3.2 14.5 0.00 0.00 0.00 35 1009.2
20260503233549 13 129 3.2 14.5 0.00 0.00 0.00 34 1009.2
20260503233049 13 132 4.8 14.5 0.00 0.00 0.00 33 1009.1
20260503232547 13 150 6.4 17.7 0.00 0.00 0.00 33 1009.1
20260503232049 13 173 4.8 20.9 0.00 0.00 0.00 34 1009.0
20260503231548 13 88 3.2 20.9 0.00 0.00 0.00 32 1009.1
20260503231047 13 122 4.8 16.1 0.00 0.00 0.00 34 1009.1
20260503230549 13 148 4.8 16.1 0.00 0.00 0.00 34 1009.0
20260503230043 13 129 4.8 17.7 0.00 0.00 0.00 34 1009.0
20260503225536 13 136 4.8 25.7 0.00 0.00 0.00 34 1009.0
20260503225036 13 125 6.4 25.7 0.00 0.00 0.00 34 1009.0
20260503224536 13 122 9.7 27.4 0.00 0.00 0.00 33 1009.0
20260503224035 13 108 9.7 27.4 0.00 0.00 0.00 33 1008.9
20260503223536 13 131 6.4 17.7 0.00 0.00 0.00 33 1009.0
20260503223036 13 76 6.4 17.7 0.00 0.00 0.00 34 1009.0
20260503222754 13 124 6.4 17.7 0.00 0.00 0.00 33 1008.8
20260503222036 14 173 8.0 19.3 0.00 0.00 0.00 33 1008.8
20260503221536 14 128 8.0 19.3 0.00 0.00 0.00 33 1008.8
20260503221038 13 152 9.7 29.0 0.00 0.00 0.00 33 1008.8
20260503220536 13 104 9.7 29.0 0.00 0.00 0.00 33 1008.8
20260503220036 13 134 9.7 29.0 0.00 0.00 0.00 33 1008.9
20260503215802 13 71 11.3 29.0 0.00 0.00 0.00 33 1008.8
20260503215036 13 162 12.9 32.2 0.00 0.00 0.00 33 1008.8
20260503214537 13 144 11.3 32.2 0.00 0.00 0.00 33 1008.7